GW7075 Weather Reports


time (UTC)temp
C
wind
direction
speed
KPH
gust
KPH
rain 1hr
cm
rain 24hr
cm
rain mn
cm
humidity
%
barometer
mb
20260506135731 12 353 11.3 12.9 0.00 0.00 0.00 79 1014.0
20260506135228 12 307 6.4 12.9 0.00 0.00 0.00 79 1014.0
20260506134725 12 322 9.7 14.5 0.00 0.00 0.00 79 1013.8
20260506134221 12 9 6.4 14.5 0.00 0.00 0.00 79 1013.5
20260506133719 12 319 4.8 11.3 0.00 0.00 0.00 79 1013.4
20260506133215 12 5 3.2 11.3 0.00 0.00 0.00 79 1013.3
20260506132712 12 29 6.4 11.3 0.00 0.00 0.00 79 1013.5
20260506132209 12 335 6.4 14.5 0.00 0.00 0.00 79 1013.4
20260506131707 12 332 6.4 17.7 0.00 0.00 0.00 80 1013.2
20260506131203 12 330 8.0 9.7 0.00 0.00 0.00 80 1013.0
20260506130659 12 323 4.8 12.9 0.00 0.00 0.00 80 1012.9
20260506130157 12 323 6.4 14.5 0.00 0.00 0.00 80 1013.0
20260506125655 12 342 9.7 16.1 0.00 0.00 0.00 80 1012.9
20260506125152 12 346 6.4 14.5 0.00 0.00 0.00 79 1013.0
20260506124650 12 71 8.0 16.1 0.00 0.00 0.00 79 1013.0
20260506124147 12 330 6.4 11.3 0.00 0.00 0.00 78 1012.9
20260506123645 12 304 12.9 22.5 0.00 0.00 0.00 77 1013.0
20260506123144 12 337 4.8 17.7 0.00 0.00 0.00 77 1012.6
20260506122640 12 335 8.0 11.3 0.00 0.00 0.00 77 1012.6
20260506122138 12 341 8.0 11.3 0.00 0.00 0.00 77 1012.6
20260506121635 12 336 4.8 6.4 0.00 0.00 0.00 76 1012.8
20260506121131 12 71 8.0 12.9 0.00 0.00 0.00 76 1012.5
20260506120630 12 297 3.2 16.1 0.00 0.00 0.00 76 1012.5
20260506120126 12 26 4.8 6.4 0.00 0.00 0.00 76 1012.5
20260506115625 12 348 9.7 20.9 0.00 0.00 0.00 75 1012.4
20260506115123 12 72 4.8 16.1 0.00 0.00 0.00 76 1012.4
20260506114619 12 346 9.7 14.5 0.00 0.00 0.00 75 1012.0
20260506114118 13 316 9.7 14.5 0.00 0.00 0.00 75 1011.9
20260506113616 13 285 8.0 9.7 0.00 0.00 0.00 75 1012.2
20260506113113 13 327 6.4 9.7 0.00 0.00 0.00 75 1011.9
20260506112609 13 321 12.9 14.5 0.00 0.00 0.00 74 1011.7
20260506112107 13 307 6.4 11.3 0.00 0.00 0.00 74 1011.6
20260506111604 13 288 8.0 17.7 0.00 0.00 0.00 73 1011.9
20260506111102 13 317 6.4 14.5 0.00 0.00 0.00 73 1011.7
20260506110559 13 43 6.4 17.7 0.00 0.00 0.00 73 1011.7
20260506110056 13 292 11.3 14.5 0.00 0.00 0.00 73 1011.5
20260506105552 13 5 4.8 20.9 0.00 0.00 0.00 73 1011.4
20260506105050 13 353 6.4 14.5 0.00 0.00 0.00 73 1011.1
20260506104548 13 312 6.4 14.5 0.00 0.00 0.00 73 1011.3
20260506104045 13 333 14.5 17.7 0.00 0.00 0.00 73 1011.2
20260506103542 13 311 6.4 14.5 0.00 0.00 0.00 73 1011.1
20260506103039 13 335 9.7 14.5 0.00 0.00 0.00 73 1010.8
20260506102537 13 294 9.7 12.9 0.00 0.00 0.00 72 1010.9
20260506102034 13 46 9.7 11.3 0.00 0.00 0.00 72 1010.7
20260506101531 13 297 6.4 9.7 0.00 0.00 0.00 72 1010.7
20260506101028 13 305 4.8 6.4 0.00 0.00 0.00 72 1010.8
20260506100526 13 19 3.2 12.9 0.00 0.00 0.00 72 1010.7
20260506100024 13 336 6.4 6.4 0.00 0.00 0.00 71 1010.5
20260506095523 14 316 4.8 11.3 0.00 0.00 0.00 72 1010.4
20260506095018 13 326 1.6 9.7 0.00 0.00 0.00 72 1010.5
20260506094517 14 295 3.2 14.5 0.00 0.00 0.00 72 1010.5
20260506094014 13 307 3.2 9.7 0.00 0.00 0.00 72 1010.2
20260506093512 14 348 8.0 11.3 0.00 0.00 0.00 71 1010.3
20260506093009 14 10 6.4 12.9 0.00 0.00 0.00 72 1010.1
20260506092507 14 282 4.8 11.3 0.00 0.00 0.00 71 1010.2
20260506092003 14 329 9.7 14.5 0.00 0.00 0.00 71 1010.1
20260506091502 14 327 8.0 12.9 0.00 0.00 0.00 72 1009.8
20260506090959 14 300 4.8 9.7 0.00 0.00 0.00 72 1010.2
20260506090457 14 327 6.4 9.7 0.00 0.00 0.00 72 1010.2
20260506085953 14 36 6.4 12.9 0.00 0.00 0.00 72 1010.0
20260506085450 14 310 4.8 12.9 0.00 0.00 0.00 72 1009.9
20260506084946 14 289 8.0 12.9 0.00 0.00 0.00 72 1010.0
20260506084443 14 336 6.4 12.9 0.00 0.00 0.00 72 1009.9
20260506083939 14 315 6.4 9.7 0.00 0.00 0.00 72 1010.0
20260506083437 15 298 6.4 11.3 0.00 0.00 0.00 72 1009.7
20260506082934 15 324 3.2 6.4 0.00 0.00 0.00 72 1009.8
20260506082431 15 328 6.4 9.7 0.00 0.00 0.00 72 1009.9
20260506081926 15 9 4.8 9.7 0.00 0.00 0.00 72 1009.8
20260506081425 15 330 3.2 4.8 0.00 0.00 0.00 72 1009.6
20260506080922 15 315 6.4 11.3 0.00 0.00 0.00 72 1009.9
20260506080418 15 306 3.2 4.8 0.00 0.00 0.00 72 1009.5
20260506073403 15 328 3.2 4.8 0.00 0.00 0.00 73 1009.2
20260506072859 15 7 6.4 9.7 0.00 0.00 0.00 74 1009.5
20260506072357 15 303 6.4 11.3 0.00 0.00 0.00 74 1009.4
20260506071854 15 325 6.4 11.3 0.00 0.00 0.00 74 1009.3
20260506071352 15 304 4.8 12.9 0.00 0.00 0.00 73 1009.5
20260506070849 15 307 4.8 9.7 0.00 0.00 0.00 74 1009.8
20260506070346 15 292 8.0 9.7 0.00 0.00 0.00 73 1009.4
20260506062323 15 42 9.7 16.1 0.00 0.00 0.00 73 1009.3
20260506061819 16 333 6.4 16.1 0.00 0.00 0.00 73 1009.4
20260506061316 16 24 8.0 9.7 0.00 0.00 0.00 73 1009.5
20260506060814 16 307 6.4 12.9 0.00 0.00 0.00 73 1009.6
20260506060312 16 0 8.0 14.5 0.00 0.00 0.00 73 1009.5
20260506051243 16 35 9.7 16.1 0.00 0.00 0.00 76 1009.4
20260506050741 16 4 6.4 14.5 0.00 0.00 0.00 76 1009.4
20260506050238 17 296 8.0 12.9 0.00 0.00 0.00 76 1009.3
20260506044729 17 340 8.0 11.3 0.00 0.00 0.00 76 1009.3
20260506044226 17 308 8.0 16.1 0.00 0.00 0.00 76 1009.3
20260506043724 17 324 9.7 16.1 0.00 0.00 0.00 75 1009.3
20260506043221 17 294 8.0 11.3 0.00 0.00 0.00 75 1009.3
20260506042720 17 344 14.5 16.1 0.00 0.00 0.00 75 1009.3
20260506042218 17 303 6.4 16.1 0.00 0.00 0.00 75 1009.1
20260506041716 17 327 9.7 14.5 0.00 0.00 0.00 75 1008.9
20260506041213 17 341 9.7 20.9 0.00 0.00 0.00 75 1009.0
20260506040710 17 359 9.7 20.9 0.00 0.00 0.00 75 1009.1
20260506040207 17 309 6.4 17.7 0.00 0.00 0.00 75 1009.0
20260506035704 18 333 9.7 17.7 0.00 0.00 0.00 75 1008.5
20260506035201 18 314 3.2 11.3 0.00 0.00 0.00 75 1008.3
20260506034657 18 332 12.9 17.7 0.00 0.00 0.00 74 1008.3
20260506034155 18 325 9.7 12.9 0.00 0.00 0.00 74 1008.4
20260506033652 18 292 6.4 14.5 0.00 0.00 0.00 74 1008.4
20260506033149 18 5 9.7 12.9 0.00 0.00 0.00 74 1008.1
20260506032646 18 330 11.3 22.5 0.00 0.00 0.00 74 1008.3
20260506032143 19 299 3.2 11.3 0.00 0.00 0.00 74 1008.1
20260506031640 19 15 11.3 17.7 0.00 0.00 0.00 74 1007.9
20260506031137 20 332 12.9 22.5 0.00 0.00 0.00 74 1007.9
20260506030636 20 323 6.4 12.9 0.00 0.00 0.00 73 1007.8
20260506030132 20 4 9.7 11.3 0.00 0.00 0.00 73 1007.6
20260506025629 20 295 9.7 12.9 0.00 0.00 0.00 72 1007.7
20260506025125 20 309 9.7 22.5 0.00 0.00 0.00 72 1007.8
20260506024623 21 288 6.4 16.1 0.00 0.00 0.00 72 1007.5
20260506024118 21 2 6.4 11.3 0.00 0.00 0.00 72 1007.3
20260506023615 21 334 6.4 16.1 0.00 0.00 0.00 71 1007.0
20260506023112 21 45 8.0 17.7 0.00 0.00 0.00 71 1006.9
20260506022610 21 293 6.4 14.5 0.00 0.00 0.00 71 1006.9
20260506022107 21 26 9.7 14.5 0.00 0.00 0.00 72 1006.7
20260506021605 21 350 4.8 6.4 0.00 0.00 0.00 73 1006.5
20260506021102 21 337 6.4 12.9 0.00 0.00 0.00 72 1006.5
20260506020559 21 292 3.2 9.7 0.00 0.00 0.00 72 1006.4
20260506020056 21 331 4.8 11.3 0.00 0.00 0.00 71 1006.3
20260506015554 21 344 9.7 12.9 0.00 0.00 0.00 71 1006.0
20260506015050 21 316 4.8 9.7 0.00 0.00 0.00 71 1005.9
20260506014548 22 316 4.8 9.7 0.00 0.00 0.00 70 1006.0
20260506014049 22 303 4.8 11.3 0.00 0.00 0.00 69 1006.1
20260506013547 22 277 6.4 9.7 0.00 0.00 0.00 69 1005.9
20260506013044 22 270 6.4 11.3 0.00 0.00 0.00 69 1005.7
20260506012540 22 307 4.8 6.4 0.00 0.00 0.00 68 1005.8
20260506012037 22 332 3.2 6.4 0.00 0.00 0.00 68 1005.6
20260506011535 22 353 4.8 11.3 0.00 0.00 0.00 67 1005.5
20260506011031 22 314 3.2 4.8 0.00 0.00 0.00 67 1005.8
20260506010531 23 315 4.8 11.3 0.00 0.00 0.00 66 1005.8
20260506010026 23 268 4.8 6.4 0.00 0.00 0.00 66 1005.6
20260506005524 23 328 4.8 6.4 0.00 0.00 0.00 66 1005.3
20260506005019 23 4 6.4 12.9 0.00 0.00 0.00 66 1005.5
20260506004517 23 327 4.8 11.3 0.00 0.00 0.00 67 1004.7
20260506004013 23 317 9.7 11.3 0.00 0.00 0.00 66 1005.2
20260506003510 23 313 8.0 14.5 0.00 0.00 0.00 66 1005.1
20260506003006 23 301 3.2 12.9 0.00 0.00 0.00 67 1005.1
20260506002502 23 321 11.3 16.1 0.00 0.00 0.00 66 1004.8
20260506001958 24 270 8.0 14.5 0.00 0.00 0.00 66 1004.7
20260506001454 24 291 4.8 9.7 0.00 0.00 0.00 65 1004.8
20260506000952 25 336 9.7 12.9 0.00 0.00 0.00 65 1004.5
20260506000449 25 320 4.8 20.9 0.00 0.00 0.00 64 1004.6
20260505235946 25 282 6.4 20.9 0.00 0.00 0.00 63 1004.4
20260505235444 26 346 9.7 12.9 0.00 0.00 0.00 62 1004.5
20260505234941 26 45 8.0 16.1 0.00 0.00 0.00 62 1004.3
20260505234438 26 351 8.0 9.7 0.00 0.00 0.00 62 1004.4
20260505233935 26 308 4.8 11.3 0.00 0.00 0.00 62 1003.9
20260505233433 26 330 9.7 14.5 0.00 0.00 0.00 62 1004.2
20260505232930 26 342 9.7 17.7 0.00 0.00 0.00 61 1004.3
20260505232428 27 325 6.4 20.9 0.00 0.00 0.00 61 1004.1
20260505231924 28 301 12.9 17.7 0.00 0.00 0.00 59 1003.8
20260505231422 28 320 6.4 17.7 0.00 0.00 0.00 55 1003.8
20260505230920 28 294 14.5 14.5 0.00 0.00 0.00 54 1003.6
20260505230417 28 295 6.4 14.5 0.00 0.00 0.00 54 1003.6
20260505225914 28 326 4.8 12.9 0.00 0.00 0.00 52 1003.5
20260505225411 29 307 8.0 14.5 0.00 0.00 0.00 51 1003.4
20260505224906 30 319 8.0 12.9 0.00 0.00 0.00 50 1003.3
20260505224404 30 324 4.8 9.7 0.00 0.00 0.00 49 1003.5
20260505223900 30 329 8.0 14.5 0.00 0.00 0.00 47 1003.3
20260505223357 30 319 8.0 14.5 0.00 0.00 0.00 46 1003.4
20260505222853 31 294 9.7 14.5 0.00 0.00 0.00 45 1002.9
20260505222350 32 313 8.0 9.7 0.00 0.00 0.00 44 1003.0
20260505221847 33 259 3.2 6.4 0.00 0.00 0.00 47 1002.7
20260505221343 33 319 3.2 4.8 0.00 0.00 0.00 46 1002.8
20260505220840 33 264 0.0 1.6 0.00 0.00 0.00 47 1002.6
20260505220337 33 212 0.0 3.2 0.00 0.00 0.00 46 1002.7
20260505215835 34 269 3.2 3.2 0.00 0.00 0.00 45 1002.7
20260505215333 33 270 1.6 1.6 0.00 0.00 0.00 46 1002.8
20260505214831 33 173 4.8 11.3 0.00 0.00 0.00 47 1002.9
20260505214328 33 239 1.6 3.2 0.00 0.00 0.00 47 1003.1
20260505213825 33 253 1.6 3.2 0.00 0.00 0.00 47 1003.0
20260505213323 34 179 6.4 6.4 0.00 0.00 0.00 45 1002.8
20260505212819 33 195 0.0 4.8 0.00 0.00 0.00 46 1002.9
20260505212316 33 163 6.4 6.4 0.00 0.00 0.00 47 1003.0
20260505211812 33 188 4.8 12.9 0.00 0.00 0.00 49 1003.2
20260505211310 32 166 6.4 16.1 0.00 0.00 0.00 50 1003.0
20260505210806 33 182 3.2 9.7 0.00 0.00 0.00 50 1003.2
20260505210303 33 134 3.2 4.8 0.00 0.00 0.00 50 1003.4
20260505205800 32 193 4.8 9.7 0.00 0.00 0.00 51 1003.3
20260505205259 32 176 4.8 9.7 0.00 0.00 0.00 53 1003.3
20260505204754 32 142 6.4 11.3 0.00 0.00 0.00 52 1003.4
20260505204253 31 137 4.8 9.7 0.00 0.00 0.00 53 1003.5
20260505203749 32 193 9.7 14.5 0.00 0.00 0.00 52 1003.8
20260505203246 32 140 9.7 12.9 0.00 0.00 0.00 52 1003.5
20260505202742 32 237 4.8 16.1 0.00 0.00 0.00 53 1003.8
20260505202239 32 189 6.4 11.3 0.00 0.00 0.00 53 1003.8
20260505201735 32 231 3.2 14.5 0.00 0.00 0.00 52 1003.9
20260505201233 32 148 11.3 17.7 0.00 0.00 0.00 52 1003.8
20260505200731 32 10 4.8 4.8 0.00 0.00 0.00 53 1003.8
20260505200228 32 192 6.4 11.3 0.00 0.00 0.00 54 1003.9
20260505195723 32 183 3.2 4.8 0.00 0.00 0.00 53 1003.9
20260505195221 31 190 3.2 12.9 0.00 0.00 0.00 54 1003.9
20260505194718 31 222 3.2 14.5 0.00 0.00 0.00 55 1003.9
20260505194214 31 196 6.4 6.4 0.00 0.00 0.00 55 1004.0
20260505193710 31 216 6.4 14.5 0.00 0.00 0.00 54 1004.1
20260505193208 31 134 8.0 12.9 0.00 0.00 0.00 54 1004.2
20260505192707 31 182 3.2 4.8 0.00 0.00 0.00 55 1004.0
20260505192203 30 162 6.4 14.5 0.00 0.00 0.00 56 1003.9
20260505191702 30 173 3.2 12.9 0.00 0.00 0.00 57 1004.0
20260505191200 30 240 4.8 12.9 0.00 0.00 0.00 58 1003.9
20260505190656 30 201 9.7 14.5 0.00 0.00 0.00 58 1004.0
20260505190155 30 175 8.0 12.9 0.00 0.00 0.00 58 1004.1
20260505185652 30 196 3.2 14.5 0.00 0.00 0.00 59 1004.1
20260505185149 30 246 11.3 14.5 0.00 0.00 0.00 58 1004.1
20260505184645 30 227 9.7 12.9 0.00 0.00 0.00 59 1004.3
20260505184142 30 222 8.0 11.3 0.00 0.00 0.00 59 1004.4
20260505183639 29 233 9.7 12.9 0.00 0.00 0.00 59 1004.3
20260505183137 28 148 16.1 17.7 0.00 0.00 0.00 61 1004.2
20260505182633 29 140 11.3 16.1 0.00 0.00 0.00 61 1004.2
20260505182130 30 206 9.7 12.9 0.00 0.00 0.00 59 1004.3
20260505181626 29 233 12.9 22.5 0.00 0.00 0.00 58 1004.4
20260505181124 29 190 12.9 25.7 0.00 0.00 0.00 60 1004.2
20260505180620 29 204 8.0 11.3 0.00 0.00 0.00 61 1004.4
20260505180117 29 187 6.4 11.3 0.00 0.00 0.00 60 1004.3
20260505175613 29 207 8.0 14.5 0.00 0.00 0.00 61 1004.4
20260505175110 29 137 11.3 20.9 0.00 0.00 0.00 61 1004.3
20260505174606 29 237 4.8 14.5 0.00 0.00 0.00 62 1004.1
20260505174102 28 189 6.4 14.5 0.00 0.00 0.00 63 1004.1
20260505173559 28 178 6.4 22.5 0.00 0.00 0.00 63 1004.3
20260505173056 28 191 4.8 11.3 0.00 0.00 0.00 62 1004.3
20260505172554 28 187 1.6 16.1 0.00 0.00 0.00 62 1004.5
20260505172050 28 159 11.3 12.9 0.00 0.00 0.00 63 1004.2
20260505171545 28 220 3.2 12.9 0.00 0.00 0.00 63 1004.4
20260505171042 28 171 6.4 16.1 0.00 0.00 0.00 65 1004.3
20260505170539 27 172 8.0 14.5 0.00 0.00 0.00 66 1004.6
20260505170036 27 134 12.9 16.1 0.00 0.00 0.00 66 1004.5
20260505165531 27 145 9.7 17.7 0.00 0.00 0.00 66 1004.5
20260505165026 27 255 3.2 12.9 0.00 0.00 0.00 66 1004.6
20260505164523 27 129 6.4 17.7 0.00 0.00 0.00 67 1004.4
20260505164021 27 149 4.8 16.1 0.00 0.00 0.00 68 1004.3
20260505163519 27 181 6.4 12.9 0.00 0.00 0.00 68 1004.4
20260505163015 27 212 14.5 20.9 0.00 0.00 0.00 69 1004.5
20260505162509 27 161 9.7 16.1 0.00 0.00 0.00 69 1004.4
20260505162006 27 204 9.7 17.7 0.00 0.00 0.00 69 1004.3
20260505161502 26 173 11.3 17.7 0.00 0.00 0.00 70 1004.4
20260505160959 26 174 12.9 20.9 0.00 0.00 0.00 70 1004.4
20260505160458 26 171 12.9 20.9 0.00 0.00 0.00 71 1004.5
20260505152934 25 191 8.0 16.1 0.00 0.00 0.00 74 1004.3
20260505152431 25 178 4.8 9.7 0.00 0.00 0.00 74 1004.2
20260505151932 25 194 12.9 17.7 0.00 0.00 0.00 74 1004.2
20260505151427 25 146 14.5 20.9 0.00 0.00 0.00 74 1004.1
20260505150925 25 165 6.4 12.9 0.00 0.00 0.00 74 1004.0
20260505150422 25 204 6.4 11.3 0.00 0.00 0.00 75 1004.6
20260505140352 22 171 9.7 20.9 0.00 0.00 0.00 80 1004.1